Vorticity
10 9 8 7 6 5 4 3 3 3 3 3 3 3 3 3 3 3 2 2 2 2 1 -0 -1 -1 -1 1 3 5 7 9 10 11 10 9 8 6 5 5 7 8 9 9 8 8 8 8 8 8 8 8 7 8 8 8 7 7 6 6 5 5 5 5 5 6 6 6 6 6 6 6 6 6 6 5 5 5 5 5 5 5 5 5 5 5 5 5 5 5 5 5 5 5 5 5 5 5 5 5 5 5 5
11 10 8 6 5 4 3 3 3 3 3 3 2 2 2 2 1 1 1 1 1 1 1 -0 -1 -0 1 3 5 7 9 10 10 10 9 8 7 6 5 6 7 9 9 8 8 8 8 8 8 8 8 8 8 8 8 8 7 7 6 5 5 5 5 5 6 6 6 6 6 6 6 6 6 6 6 5 5 5 5 5 5 5 5 5 5 5 5 5 5 5 5 5 5 5 5 5 5 5 5 5 5 5 5
11 9 7 6 5 3 3 2 2 2 2 2 1 1 1 0 -0 -0 0 1 1 2 2 2 2 3 5 6 8 9 10 11 10 9 9 8 6 5 5 7 8 9 9 8 8 8 8 8 8 8 8 8 8 8 9 8 7 6 5 5 5 5 5 6 6 6 6 6 6 6 6 6 6 6 5 5 5 5 5 5 5 5 5 5 5 5 5 5 5 5 5 5 5 5 5 5 5 5 5 5 5 5 5
10 9 8 6 5 4 3 2 2 2 1 1 0 0 -0 -0 -0 0 1 2 3 4 5 6 7 8 9 9 10 10 11 10 9 9 9 7 6 5 6 7 8 9 8 8 8 8 8 8 8 8 9 9 9 9 9 7 6 6 5 5 5 5 6 6 6 6 6 6 6 6 6 6 6 6 5 5 5 5 5 5 5 5 5 5 5 5 5 5 5 5 4 4 4 4 5 5 5 5 5 5 5 5 5
8 8 7 7 6 5 4 3 2 1 1 0 0 -0 0 0 1 2 3 5 7 9 11 12 13 12 11 11 11 11 10 8 8 8 8 6 5 5 6 8 9 9 9 9 9 9 8 8 8 9 9 9 9 9 8 7 6 5 5 5 5 6 6 6 6 6 6 6 6 6 6 6 6 5 6 5 5 5 5 5 5 5 5 5 5 5 5 5 4 4 4 4 4 4 5 5 5 5 5 5 5 4 5
6 6 6 7 7 7 6 5 4 3 2 2 2 2 2 3 4 6 8 11 13 16 17 17 16 14 12 12 11 10 8 7 8 8 7 6 5 6 7 8 9 9 9 9 9 9 8 8 8 9 10 10 9 8 7 6 5 5 5 5 6 6 6 6 6 6 6 6 6 6 6 6 6 6 5 5 5 5 5 5 5 5 5 4 4 4 4 4 4 4 4 4 4 4 5 5 5 5 5 5 4 4 5
5 4 4 6 7 8 8 7 6 6 6 7 7 8 8 10 11 13 15 17 19 19 19 17 15 13 12 11 10 8 6 7 8 8 7 6 6 6 8 9 9 9 9 9 9 8 8 8 8 9 10 9 8 7 6 5 5 5 5 6 6 6 6 6 6 6 6 6 6 6 6 6 6 5 5 5 5 5 5 5 5 4 4 4 4 4 4 4 4 4 4 4 4 5 5 4 4 4 4 4 4 4 5
4 2 2 4 6 7 9 8 8 8 8 10 12 13 15 16 17 18 19 19 19 18 16 14 13 12 12 10 7 6 6 7 8 7 6 5 6 7 9 8 8 9 9 9 8 8 8 8 9 9 10 9 7 6 5 5 5 6 6 6 6 6 6 6 6 6 6 6 6 6 6 6 6 5 5 5 5 5 5 4 4 4 4 4 4 3 3 4 4 4 4 5 5 5 5 4 4 4 4 5 5 5 5
4 2 1 2 4 6 7 8 8 8 8 10 12 14 16 16 17 17 18 17 16 14 13 13 12 11 9 7 6 5 6 8 8 7 6 6 7 8 8 8 8 9 9 9 8 8 8 8 9 9 8 7 7 6 5 5 6 6 6 6 6 6 6 6 6 6 6 6 6 6 6 5 5 5 5 5 5 4 4 4 4 4 4 4 3 3 3 4 4 4 4 5 5 5 4 4 4 4 5 5 5 5 5
4 2 1 1 2 4 6 6 7 7 8 9 11 12 12 13 13 14 15 14 13 12 12 11 10 9 7 5 5 5 7 8 7 6 5 6 7 8 8 8 8 9 9 8 8 8 8 9 9 8 7 6 6 5 5 6 6 6 5 6 6 6 6 6 6 6 6 6 6 6 6 5 5 5 4 4 4 4 4 3 3 3 3 3 3 4 4 4 4 4 4 4 4 4 4 4 4 5 5 5 5 5 5
4 3 1 1 2 3 5 6 6 7 8 9 10 10 10 11 12 13 13 13 12 11 10 10 8 6 4 4 5 6 8 7 7 6 5 6 7 8 8 8 8 9 9 8 8 8 9 9 9 7 6 5 5 5 5 6 6 6 5 5 6 6 6 6 6 6 6 6 6 6 6 5 5 4 4 4 4 4 3 3 3 3 4 4 4 4 4 4 4 5 5 4 4 4 4 4 5 5 5 5 6 6 6
4 3 1 1 2 4 5 6 6 7 9 10 10 9 9 10 12 13 13 11 10 9 8 7 5 4 3 4 6 7 8 7 6 6 6 7 8 8 8 8 9 9 9 9 9 9 9 9 8 7 6 5 5 5 6 6 6 5 5 5 6 6 5 5 5 5 6 6 6 5 5 5 4 4 4 4 4 3 3 3 3 3 3 4 4 4 4 4 5 5 4 4 4 4 4 5 5 5 5 5 6 6 6
4 2 1 2 3 4 5 6 6 8 9 10 10 10 10 11 12 12 10 8 7 6 6 5 4 4 4 5 6 8 8 6 6 6 6 7 8 8 8 8 9 9 9 9 9 9 9 8 7 6 6 5 5 5 6 6 5 5 5 5 5 5 5 5 5 5 5 5 5 5 5 4 4 4 4 4 3 3 3 3 3 3 4 4 4 4 4 4 4 4 4 4 4 4 5 5 5 5 5 5 5 5 5
3 2 2 2 4 5 5 5 6 7 9 10 11 11 11 12 11 10 7 5 4 4 4 4 4 4 4 6 7 8 7 6 6 6 7 7 7 7 8 8 9 9 9 9 9 9 9 8 7 6 5 5 6 6 6 6 6 5 5 5 5 5 5 5 5 5 5 5 5 5 4 4 4 4 4 3 3 3 3 4 4 4 4 4 4 4 4 4 4 4 4 4 4 4 5 5 5 5 5 5 5 5 5
3 2 2 2 4 5 5 5 6 7 8 10 11 12 12 11 9 6 4 3 3 3 4 4 4 5 6 7 8 7 7 6 6 7 7 7 7 7 8 9 9 9 9 9 9 9 8 7 6 5 5 6 6 6 6 6 6 5 5 5 5 5 5 5 5 5 5 5 5 4 4 4 4 3 3 3 3 3 4 4 4 4 4 4 4 4 5 5 4 4 4 4 4 5 5 5 5 5 5 5 5 5 4
3 2 2 3 4 4 5 6 6 7 8 9 10 11 12 10 7 4 2 3 3 4 5 5 5 6 7 8 8 7 6 6 7 7 8 7 7 8 8 9 9 9 9 9 10 9 8 7 6 5 5 6 6 6 6 6 5 5 5 5 5 5 5 5 5 5 5 4 4 4 3 3 3 3 3 3 4 4 4 4 4 4 4 4 5 5 5 5 4 4 4 4 5 5 5 5 5 5 4 4 4 4 4
3 2 2 3 4 4 5 6 6 7 8 9 10 10 11 7 5 3 3 4 5 6 6 6 6 7 8 8 7 7 7 7 7 8 7 7 7 8 8 9 9 9 9 10 10 9 8 7 6 5 5 6 6 6 6 5 5 5 5 5 5 5 5 5 5 5 4 4 4 3 3 3 3 4 4 4 4 4 4 4 4 4 5 5 5 5 5 4 4 4 5 5 5 5 5 5 5 4 4 4 4 4 4
3 2 2 3 4 4 4 5 7 8 9 9 9 10 9 6 4 4 4 5 6 7 7 7 7 8 8 7 7 7 7 8 8 8 7 7 7 8 9 9 9 9 9 10 9 9 7 6 6 6 6 6 6 6 6 6 5 5 5 5 5 5 5 4 4 4 4 4 3 3 3 4 4 4 4 4 4 4 4 5 5 5 5 5 5 5 5 4 4 5 5 5 5 5 5 5 4 4 4 4 4 4 4
4 3 3 4 4 4 4 5 6 8 9 9 9 9 7 5 4 5 5 6 7 7 7 7 8 8 7 7 7 7 8 8 8 7 7 7 7 8 9 8 8 9 9 10 9 8 7 6 6 6 6 6 6 6 6 6 5 5 5 4 4 4 4 4 4 3 3 3 3 3 4 4 4 4 5 4 4 4 4 5 5 5 5 5 5 5 5 5 5 5 5 5 5 5 4 4 4 4 4 4 4 4 5
4 4 4 4 5 5 5 4 5 7 9 9 9 8 6 4 5 5 6 7 7 8 7 8 8 7 7 7 7 7 8 8 7 7 6 7 8 8 9 8 8 9 9 9 9 8 7 6 6 6 6 6 6 6 6 5 5 5 4 4 4 4 4 4 4 3 3 3 3 4 4 4 4 4 4 4 4 4 5 5 5 6 6 5 5 5 5 5 5 5 5 5 5 4 4 4 4 4 4 4 4 5 5
5 4 5 5 6 6 6 5 5 6 8 8 8 7 5 5 5 6 7 7 7 7 7 8 7 7 7 7 7 8 8 8 7 6 6 7 8 8 9 8 9 9 9 9 8 7 6 6 6 6 6 6 6 6 5 5 4 4 4 4 4 4 4 3 4 4 4 4 5 5 5 5 5 5 4 4 4 5 5 5 6 6 6 5 5 5 5 5 5 5 5 5 4 4 4 4 4 4 4 4 5 5 6
6 5 5 6 6 6 6 5 5 6 7 7 7 6 5 5 6 7 7 7 7 7 7 8 7 7 7 7 8 8 8 7 6 6 6 7 8 8 9 8 9 9 9 9 8 7 6 6 6 6 6 6 6 5 5 5 4 4 4 3 4 4 4 4 4 5 5 5 5 5 5 5 5 5 4 4 4 5 5 6 6 6 6 6 5 5 5 5 5 5 5 4 4 4 4 4 4 4 5 5 6 6 7
6 6 5 6 6 6 6 6 6 6 7 7 6 6 6 6 7 7 7 7 7 7 8 8 7 7 7 8 8 8 7 6 6 6 6 7 8 9 9 9 9 9 9 9 7 6 6 6 6 6 6 6 6 5 5 5 5 4 4 4 4 4 4 5 6 6 5 5 5 4 5 5 5 4 4 4 5 5 6 6 6 6 6 5 5 5 5 5 5 5 4 4 4 4 4 4 5 5 5 6 6 7 7
6 6 6 6 6 7 7 7 6 6 6 6 6 6 6 7 7 7 7 7 7 7 7 7 7 7 7 8 8 8 6 6 6 6 6 7 8 9 9 9 9 10 9 8 7 6 5 5 6 6 6 6 6 5 5 5 4 4 4 4 4 4 5 5 6 5 5 5 5 5 5 5 5 5 5 5 5 5 6 6 6 6 6 6 5 5 5 5 5 4 4 4 4 4 4 5 5 6 6 7 7 7 7
6 6 6 6 7 7 8 7 7 6 6 5 6 6 7 8 8 7 7 7 7 7 7 7 6 7 7 8 8 7 6 5 6 7 7 8 8 8 9 9 9 9 9 8 7 6 5 5 6 6 6 6 5 5 5 5 4 4 4 4 4 5 5 5 4 4 4 4 5 5 5 6 6 6 5 5 5 6 6 6 6 6 6 6 5 5 4 5 5 4 4 4 4 5 5 5 6 6 7 7 7 7 8
5 6 6 7 7 8 8 8 7 6 5 5 6 7 8 8 8 7 7 7 7 7 7 7 6 7 8 8 7 6 6 5 6 7 8 8 8 8 9 9 9 9 8 7 7 6 6 6 6 6 6 6 5 5 5 5 4 4 4 4 4 4 5 4 4 4 4 4 5 5 6 6 6 6 5 5 6 6 6 6 6 6 6 5 5 4 4 5 5 5 5 5 5 5 6 6 7 7 7 7 7 8 8
6 6 6 7 8 8 8 7 6 6 5 6 7 8 9 8 8 7 7 7 7 7 7 6 7 7 8 7 7 6 5 5 6 7 8 9 9 9 9 9 9 9 8 7 6 6 6 6 6 6 6 5 5 5 5 5 5 4 4 4 4 4 4 4 4 4 4 4 5 5 6 7 6 5 5 6 6 6 6 6 6 6 6 5 5 4 5 5 5 5 5 5 5 6 6 7 7 7 7 7 8 8 8
6 6 7 7 8 8 8 7 6 5 5 6 7 8 9 8 7 7 7 7 7 7 6 7 7 7 8 7 6 5 5 6 7 8 8 9 9 9 9 9 9 8 7 6 6 6 6 6 6 6 6 6 5 5 5 5 4 4 4 4 4 4 4 4 4 4 4 5 5 6 7 7 6 5 5 6 6 6 6 6 6 5 5 5 5 5 5 5 5 5 5 5 6 6 6 7 7 7 7 8 8 8 8
6 7 7 7 7 7 7 6 5 5 6 6 7 8 9 8 7 7 7 7 7 7 6 7 7 7 7 7 6 6 5 6 7 8 9 9 9 10 9 9 9 8 7 6 6 6 6 6 6 6 6 6 5 5 4 4 4 4 4 4 4 4 4 4 4 4 5 6 6 6 7 6 6 6 6 6 6 6 6 6 6 5 5 5 5 5 5 5 5 5 6 6 6 6 6 7 7 7 8 8 8 8 8
7 7 7 7 7 7 6 5 5 5 6 7 8 8 8 8 7 7 7 7 6 6 6 7 7 7 7 6 6 6 5 6 7 8 9 9 9 9 10 9 8 7 7 6 6 6 6 6 6 6 6 5 5 5 4 4 4 4 4 4 4 4 4 4 5 5 6 6 6 6 6 6 6 6 6 6 6 6 6 6 5 5 5 5 5 5 5 5 6 6 6 6 6 6 6 7 7 8 8 8 8 8 8
6 7 6 6 6 6 6 5 5 5 6 7 8 9 8 8 8 7 6 6 6 6 6 7 7 7 7 6 6 5 5 6 7 8 9 9 9 9 9 8 8 7 7 6 6 6 6 6 6 5 5 5 5 5 5 4 4 4 4 5 5 5 5 5 5 6 6 6 6 6 6 6 6 6 6 6 6 6 6 5 5 5 5 5 5 5 5 5 6 6 6 6 6 6 7 7 8 8 8 8 8 8 7
6 6 6 6 6 6 6 5 5 5 6 8 9 9 9 8 8 7 6 5 5 5 6 6 7 7 6 6 6 5 5 6 7 8 9 9 9 9 9 8 8 7 6 6 6 6 6 6 5 5 5 5 5 5 5 5 5 5 5 5 5 5 5 5 6 6 6 6 6 6 6 6 6 7 6 6 6 6 5 5 5 5 5 5 5 5 5 6 6 6 6 6 6 7 7 8 8 9 8 8 7 7 7
6 6 6 6 6 6 5 5 5 6 7 9 10 10 9 8 7 6 5 5 5 5 5 6 6 6 5 5 5 5 6 7 8 8 9 9 8 8 8 8 7 7 6 6 6 6 6 6 5 5 5 5 5 5 5 5 5 5 5 5 5 5 5 6 6 6 6 6 6 6 6 6 6 6 6 6 6 5 5 5 5 5 5 5 5 5 5 6 6 6 6 6 7 7 8 8 9 9 8 7 7 6 6
6 6 6 6 6 6 5 5 6 6 8 10 10 10 9 8 7 6 5 4 4 5 6 6 6 6 6 5 5 5 6 8 9 9 8 8 8 8 7 7 7 7 6 6 6 6 6 5 5 5 5 5 5 5 5 5 5 5 5 5 5 6 6 6 6 6 6 6 6 6 6 6 6 6 6 6 6 5 5 5 5 5 5 5 5 5 6 6 6 6 6 7 7 8 8 8 8 8 8 7 6 5 5
6 7 7 6 6 6 5 5 6 7 9 10 11 10 9 7 6 5 4 4 5 5 7 7 7 6 6 6 5 6 7 8 9 10 9 8 8 7 7 7 7 6 6 6 6 6 5 5 5 5 5 5 5 5 5 5 5 5 5 5 6 6 6 6 6 6 6 6 6 6 6 7 6 6 6 6 5 5 5 5 5 5 5 5 5 6 6 6 6 6 7 7 8 8 8 8 8 7 7 6 5 5 4
6 7 7 6 6 5 5 5 6 7 9 10 11 10 9 7 6 5 4 4 5 6 7 8 8 7 6 6 6 7 7 8 9 10 10 9 7 7 7 7 6 6 6 6 6 6 5 5 5 5 5 5 4 5 5 5 5 5 5 6 6 6 6 6 6 6 6 6 6 6 6 6 6 6 6 6 5 5 5 5 5 5 5 5 6 6 6 6 6 7 7 8 8 8 8 8 7 7 6 5 5 4 4
6 6 6 6 5 5 5 5 5 7 9 11 11 10 9 7 6 5 4 5 6 7 7 8 8 7 6 6 7 7 7 8 9 9 10 9 7 7 7 7 6 6 6 6 6 5 5 5 5 5 5 4 4 5 5 5 5 5 5 6 6 6 6 6 6 6 6 6 6 6 6 6 6 6 6 6 5 5 5 5 5 5 6 6 6 6 6 6 7 7 8 8 8 8 7 7 6 6 5 4 4 4 4
6 6 6 5 5 5 4 5 6 7 9 11 11 10 9 7 5 5 4 5 6 7 7 8 8 7 7 7 7 7 7 8 8 9 8 8 7 7 7 6 6 6 6 6 5 5 5 5 5 4 4 4 4 5 5 5 5 5 6 6 6 6 6 6 6 6 6 6 6 7 6 6 6 6 6 5 5 5 5 5 5 6 6 6 6 6 6 7 7 8 8 8 8 7 6 6 6 5 5 4 4 3 3
6 6 5 4 4 4 4 4 6 7 10 11 11 10 8 6 5 5 5 6 6 7 7 7 7 7 7 7 7 7 8 8 9 8 7 7 7 7 7 6 6 5 5 5 5 5 5 5 4 4 4 4 5 5 5 5 5 6 6 6 6 6 6 6 6 6 6 6 7 7 6 6 6 5 5 5 5 5 5 5 6 6 6 6 6 7 7 7 8 8 8 8 7 6 6 5 5 5 4 4 4 3 3
5 5 4 4 4 4 4 4 6 8 10 12 11 10 7 6 5 5 5 6 7 7 8 7 6 6 7 7 7 8 9 9 9 8 7 7 6 6 6 6 5 5 5 5 5 5 5 4 4 4 4 5 5 5 5 5 5 6 6 6 6 6 6 6 6 6 7 7 7 7 6 6 6 5 5 5 5 5 5 6 6 6 6 6 7 7 7 8 8 8 8 7 6 5 5 4 4 4 4 4 4 3 4
5 4 4 4 4 4 4 4 6 8 11 12 11 9 6 5 5 5 6 6 7 7 7 7 6 6 7 7 8 8 8 9 9 8 7 7 6 6 6 6 6 5 5 5 5 5 5 5 4 5 5 5 5 5 5 5 5 6 6 6 6 6 6 6 6 7 7 7 7 6 6 6 5 5 5 5 5 5 6 6 6 6 6 7 7 7 8 8 8 7 7 6 6 5 4 4 4 4 4 4 4 4 4
4 4 3 3 4 4 4 5 7 9 12 12 11 8 6 5 5 5 6 6 7 7 7 7 7 7 6 7 8 8 8 8 9 8 7 7 6 6 6 6 6 6 6 5 5 5 5 5 5 5 5 4 5 5 5 5 5 5 6 6 6 6 6 6 7 7 7 7 7 6 6 6 5 5 5 5 6 6 6 6 6 6 6 7 7 7 8 7 7 6 6 5 5 5 4 4 4 4 4 4 4 4 4
4 4 3 3 4 4 4 5 7 10 12 12 10 7 5 4 5 5 6 6 7 6 6 7 7 7 6 6 7 8 8 8 8 8 7 6 6 6 6 6 6 6 6 6 6 5 5 5 5 5 5 5 5 5 5 5 5 6 6 6 5 6 6 7 7 8 7 7 6 6 6 5 5 5 5 6 6 6 6 6 6 6 7 7 7 8 7 7 6 6 5 5 5 4 4 4 4 4 4 4 4 4 4
4 3 3 3 4 4 5 6 8 10 12 11 8 6 4 4 5 5 6 7 7 6 6 6 7 7 7 6 6 7 8 8 8 8 7 7 6 6 7 7 7 6 6 6 6 5 5 5 5 5 5 5 6 6 6 6 6 6 6 5 6 6 6 7 8 8 7 7 6 6 5 5 5 5 6 6 6 6 6 6 6 7 7 7 7 7 7 6 6 5 5 4 4 4 4 4 4 4 4 4 4 4 5
3 3 3 3 4 4 5 7 9 11 12 10 7 5 4 4 5 6 6 7 7 7 5 6 7 8 8 6 5 5 6 7 6 6 6 6 6 6 6 7 7 6 6 6 6 6 6 5 5 5 6 6 6 6 6 6 6 6 6 6 6 7 7 8 8 7 7 6 6 5 5 5 5 5 6 6 6 6 6 6 7 7 7 7 7 7 6 6 5 5 5 4 4 4 4 4 4 4 4 4 4 5 5
4 3 3 3 4 4 5 7 9 11 11 9 6 5 4 4 5 6 6 7 7 7 6 5 6 7 8 7 6 4 5 6 6 5 5 6 6 6 7 7 7 6 6 6 6 6 6 6 6 6 6 7 7 7 6 6 6 6 6 7 7 7 8 8 8 7 7 6 6 5 5 5 5 6 6 6 6 6 6 7 7 7 7 7 7 6 6 5 5 5 4 4 4 4 4 4 4 4 4 4 5 5 5
4 4 4 4 4 5 6 7 9 10 10 8 6 4 4 4 5 6 7 6 7 7 8 6 6 6 7 7 7 7 6 6 6 5 5 6 6 6 6 6 7 7 7 6 6 6 6 6 6 7 7 7 7 7 7 7 6 6 7 7 7 8 8 8 7 7 6 6 5 5 5 5 5 6 6 6 6 6 6 7 7 7 7 7 6 6 5 5 5 4 4 4 4 4 4 4 4 4 4 5 5 5 5
4 4 4 4 5 5 6 8 9 10 9 7 6 4 4 5 6 7 8 8 7 7 8 7 6 6 6 6 8 9 9 8 7 6 4 5 6 7 7 6 7 7 7 7 6 6 6 6 7 7 7 7 7 7 7 7 7 7 8 7 8 8 8 7 7 6 6 6 5 5 5 5 6 6 6 6 6 6 7 7 7 7 7 6 6 5 5 5 4 4 4 4 4 4 4 4 4 4 4 5 5 5 5
4 4 4 4 5 6 6 8 9 9 8 7 5 4 4 5 6 7 8 8 8 8 7 8 8 7 6 6 7 9 10 9 8 6 5 4 5 6 7 7 7 7 7 7 7 7 7 7 7 7 6 7 7 7 7 7 8 8 8 8 8 8 8 7 6 6 5 5 5 5 5 5 6 6 6 6 6 7 7 7 7 7 6 6 6 5 5 5 5 4 4 4 4 4 4 4 4 4 5 5 5 5 5
4 4 4 4 5 6 7 8 9 9 8 6 5 4 4 6 6 7 7 8 8 7 7 8 9 9 7 6 7 8 9 8 6 5 6 7 6 6 6 7 7 7 7 7 7 7 7 7 7 7 7 7 7 8 8 8 8 8 8 9 9 8 7 7 6 5 5 5 5 5 5 6 6 6 6 7 7 7 7 7 7 6 6 6 6 5 5 5 5 4 4 4 4 4 4 4 4 4 5 5 5 5 5
4 4 4 5 5 6 7 9 9 9 7 6 4 4 4 6 6 7 7 7 7 7 7 7 8 10 11 7 6 6 8 7 6 5 6 7 8 7 6 6 6 6 6 6 6 6 6 7 7 7 7 7 8 8 8 8 8 8 9 9 9 8 7 6 5 5 5 5 5 5 6 6 6 6 6 7 7 7 7 7 6 6 6 6 5 5 5 5 5 4 4 4 4 4 4 4 4 5 5 5 5 5 5
4 4 4 5 6 7 8 9 9 9 7 5 4 4 5 6 7 7 8 8 7 7 8 7 7 8 11 10 7 6 7 7 7 7 7 6 6 7 6 5 5 5 7 7 6 6 6 7 8 8 8 8 8 8 8 7 8 9 9 9 8 8 6 6 5 4 4 5 5 5 6 6 6 6 6 7 7 7 7 6 6 6 6 6 5 5 5 5 5 4 4 4 4 4 4 4 5 5 5 5 5 5 4
4 4 5 6 7 8 9 10 9 8 7 5 5 5 6 7 7 7 8 8 7 7 8 8 7 7 8 9 9 7 8 7 7 7 8 6 5 5 6 6 6 6 6 7 7 8 8 8 8 8 8 8 8 8 8 8 8 9 9 9 8 7 6 5 4 4 4 5 5 6 6 6 6 6 7 7 7 7 6 6 6 6 6 6 5 5 5 5 5 4 4 4 4 4 4 5 5 5 5 5 5 4 4
4 4 5 6 7 8 10 10 10 8 7 5 5 5 6 7 8 8 8 8 8 7 7 8 8 7 7 8 8 8 7 8 8 7 8 7 5 4 5 6 5 4 4 3 4 7 11 9 8 7 8 8 8 8 7 8 8 8 9 9 8 6 5 5 4 4 5 5 5 6 6 6 6 7 7 7 7 6 6 6 6 6 6 6 5 5 5 5 4 4 4 4 4 4 5 5 5 5 5 5 5 4 4
4 5 6 7 8 9 10 10 9 8 6 5 6 6 7 8 8 9 9 9 9 8 8 8 9 9 7 7 8 9 8 9 8 8 7 8 9 8 3 1 2 3 4 8 8 6 6 6 6 6 7 8 7 8 8 8 8 9 9 8 7 6 5 4 4 4 5 5 6 6 7 6 6 7 8 7 7 6 6 6 6 6 6 6 5 5 5 5 4 4 4 4 4 4 5 5 5 5 5 5 4 4 4
6 7 7 7 8 9 10 10 9 7 5 5 6 7 8 9 9 9 9 9 9 9 9 8 9 9 7 6 7 8 9 9 9 8 7 7 9 11 9 4 2 2 1 9 11 9 3 3 5 8 10 8 7 7 8 8 9 9 8 7 6 6 5 4 4 5 5 6 6 7 8 7 7 7 7 7 6 6 6 6 6 6 6 5 5 5 5 4 4 4 4 4 4 5 5 5 5 5 5 5 4 4 4
7 8 8 8 8 9 10 9 7 6 5 6 7 8 8 8 8 9 9 9 9 9 9 8 7 7 7 4 4 5 7 8 8 8 7 7 7 8 9 12 12 10 9 7 5 4 6 7 8 8 5 7 9 9 7 8 9 8 7 7 6 6 5 5 5 5 6 6 7 7 7 8 8 7 7 6 6 6 6 6 6 6 5 5 5 5 4 4 4 4 4 4 5 5 5 5 5 5 5 4 4 4 4
8 8 8 8 9 10 9 8 7 6 5 6 7 8 8 8 8 9 9 9 9 8 8 7 6 5 5 6 4 3 4 6 8 8 7 7 7 7 7 10 12 12 14 13 13 12 7 9 11 9 0 4 9 11 9 9 8 8 8 7 6 6 5 5 5 6 6 7 7 7 7 8 8 7 7 6 6 6 6 6 6 5 5 5 4 4 4 4 4 4 4 4 5 5 5 5 5 5 5 4 4 4 4
9 8 8 9 9 10 9 7 6 5 6 7 8 9 9 9 9 9 9 9 8 7 7 7 6 5 4 5 5 5 4 5 6 7 7 7 7 7 8 9 10 10 11 12 12 12 11 9 9 9 6 5 6 8 11 10 9 7 7 6 6 6 6 6 6 6 7 7 7 7 7 7 7 7 6 6 6 6 6 6 6 5 5 5 4 4 4 4 4 4 4 5 5 5 5 5 5 5 4 4 4 4 4
9 8 8 9 9 9 8 6 5 5 6 7 8 9 9 9 9 8 8 8 7 7 6 6 5 5 5 5 6 6 6 4 5 5 5 6 6 7 8 9 10 11 11 10 10 10 10 9 8 7 9 9 7 5 7 9 9 8 7 7 6 6 6 6 7 7 7 7 7 7 7 7 7 7 6 6 6 6 5 6 6 5 5 5 4 4 4 4 4 4 5 5 5 6 5 5 5 5 4 4 4 4 4
8 8 8 9 9 8 7 6 5 6 7 8 8 9 9 9 8 7 7 7 6 6 6 5 5 5 6 6 6 7 7 4 4 4 3 4 6 8 8 9 9 10 10 10 9 8 8 8 7 7 7 9 10 9 6 5 6 7 8 8 7 7 6 7 7 7 7 7 7 7 7 7 7 6 6 6 6 5 5 6 6 5 5 5 4 4 3 4 4 5 5 5 6 6 5 5 5 5 4 4 4 4 4
Height
3132 3133 3133 3134 3135 3135 3136 3136 3137 3137 3138 3139 3139 3140 3140 3141 3141 3141 3141 3142 3143 3144 3144 3145 3146 3147 3147 3148 3148 3148 3148 3148 3148 3148 3148 3147 3147 3147 3146 3146 3147 3147 3147 3146 3146 3146 3146 3146 3146 3146 3146 3146 3145 3145 3145 3145 3145 3145 3145 3145 3145 3145 3145 3145 3145 3145 3145 3145 3144 3144 3144 3144 3144 3144 3144 3144 3144 3144 3143 3143 3143 3143 3143 3143 3143 3143 3143 3142 3142 3142 3141 3141 3141 3141 3140 3140 3140 3139 3139 3139 3138 3138 3137
3131 3132 3133 3133 3134 3134 3135 3136 3136 3137 3137 3138 3139 3139 3140 3140 3140 3140 3141 3141 3142 3143 3144 3145 3146 3146 3147 3147 3147 3147 3147 3147 3147 3148 3147 3147 3146 3146 3146 3146 3146 3147 3147 3146 3146 3145 3145 3145 3146 3146 3146 3146 3145 3145 3145 3145 3145 3145 3145 3145 3145 3145 3145 3145 3145 3145 3144 3144 3144 3144 3144 3144 3144 3144 3144 3144 3143 3143 3143 3143 3143 3143 3143 3143 3143 3143 3142 3142 3142 3141 3141 3141 3141 3140 3140 3140 3139 3139 3139 3138 3138 3137 3137
3131 3132 3132 3133 3133 3134 3134 3135 3136 3136 3137 3137 3138 3138 3139 3139 3139 3139 3140 3141 3141 3142 3143 3144 3145 3146 3146 3146 3147 3147 3147 3147 3147 3147 3147 3146 3146 3146 3146 3146 3146 3146 3146 3146 3146 3145 3145 3145 3145 3145 3146 3145 3145 3145 3145 3145 3145 3145 3145 3145 3145 3145 3145 3145 3144 3144 3144 3144 3144 3144 3144 3144 3144 3144 3143 3143 3143 3143 3143 3143 3143 3143 3143 3142 3142 3142 3142 3142 3141 3141 3141 3141 3140 3140 3140 3139 3139 3138 3138 3138 3137 3137 3136
3131 3131 3131 3132 3133 3133 3134 3134 3135 3136 3136 3137 3137 3138 3138 3138 3138 3139 3139 3140 3141 3141 3142 3143 3144 3145 3146 3146 3146 3146 3146 3146 3146 3146 3146 3146 3145 3145 3146 3146 3146 3146 3146 3146 3145 3145 3145 3145 3145 3145 3145 3145 3145 3145 3145 3145 3145 3145 3145 3144 3144 3144 3144 3144 3144 3144 3144 3144 3144 3144 3144 3144 3143 3143 3143 3143 3143 3143 3142 3142 3142 3142 3142 3142 3142 3142 3141 3141 3141 3141 3141 3140 3140 3139 3139 3139 3138 3138 3137 3137 3137 3136 3136
3130 3131 3131 3131 3132 3132 3133 3134 3134 3135 3136 3136 3136 3137 3137 3137 3138 3138 3139 3139 3140 3141 3142 3142 3143 3144 3145 3145 3145 3146 3146 3146 3146 3146 3145 3145 3145 3145 3145 3146 3146 3146 3146 3145 3145 3145 3144 3145 3145 3145 3145 3145 3145 3145 3145 3145 3145 3144 3144 3144 3144 3144 3144 3144 3144 3144 3144 3144 3144 3144 3144 3144 3143 3143 3143 3143 3142 3142 3142 3142 3142 3142 3142 3142 3141 3141 3141 3141 3141 3141 3140 3140 3140 3139 3139 3138 3138 3137 3137 3137 3136 3136 3136
3129 3130 3130 3131 3131 3132 3132 3133 3134 3134 3135 3136 3136 3136 3136 3136 3137 3137 3138 3139 3139 3140 3141 3142 3143 3143 3144 3144 3144 3145 3145 3145 3145 3145 3145 3144 3144 3145 3145 3146 3146 3146 3145 3145 3145 3144 3144 3144 3144 3144 3145 3145 3145 3145 3145 3144 3144 3144 3144 3144 3144 3144 3144 3144 3144 3144 3144 3144 3144 3144 3144 3143 3143 3143 3143 3142 3142 3142 3142 3142 3142 3142 3141 3141 3141 3141 3141 3141 3140 3140 3140 3139 3139 3139 3138 3138 3137 3137 3137 3136 3136 3136 3135
3129 3129 3130 3130 3131 3131 3132 3132 3133 3134 3134 3135 3135 3136 3136 3136 3136 3137 3137 3138 3139 3139 3140 3141 3142 3142 3143 3143 3143 3144 3144 3145 3145 3144 3144 3144 3144 3144 3145 3145 3145 3145 3145 3145 3144 3144 3144 3144 3144 3144 3144 3144 3144 3144 3144 3144 3144 3144 3144 3144 3144 3144 3144 3144 3144 3144 3144 3144 3144 3144 3144 3143 3143 3143 3143 3142 3142 3142 3142 3141 3141 3141 3141 3141 3141 3140 3140 3140 3140 3140 3139 3139 3139 3138 3138 3138 3136 3136 3136 3136 3136 3135 3135
3128 3128 3129 3130 3130 3131 3131 3132 3132 3133 3134 3134 3135 3135 3135 3135 3136 3136 3136 3137 3138 3139 3139 3140 3141 3141 3142 3142 3143 3143 3144 3144 3144 3143 3143 3143 3143 3144 3145 3145 3145 3145 3144 3144 3144 3144 3143 3143 3143 3144 3144 3144 3144 3144 3144 3144 3144 3144 3144 3144 3144 3144 3144 3144 3144 3144 3144 3144 3144 3144 3143 3143 3143 3143 3142 3142 3142 3142 3141 3141 3141 3141 3141 3140 3140 3140 3140 3140 3140 3139 3139 3139 3138 3138 3138 3137 3137 3136 3136 3136 3135 3134 3134
3127 3128 3128 3129 3130 3130 3131 3131 3132 3133 3133 3134 3134 3134 3134 3135 3135 3135 3136 3136 3137 3138 3139 3139 3140 3141 3141 3141 3142 3143 3143 3143 3143 3143 3142 3142 3143 3144 3144 3144 3144 3144 3144 3144 3143 3143 3143 3143 3143 3143 3143 3143 3143 3143 3143 3144 3144 3144 3144 3144 3144 3144 3144 3144 3144 3144 3144 3144 3143 3143 3143 3143 3143 3142 3142 3142 3142 3141 3141 3141 3141 3140 3140 3140 3140 3140 3140 3139 3139 3139 3139 3139 3138 3138 3137 3137 3136 3136 3135 3135 3134 3134 3133
3126 3127 3128 3128 3129 3129 3130 3131 3131 3132 3132 3133 3133 3133 3134 3134 3134 3135 3135 3136 3137 3137 3138 3139 3140 3140 3141 3141 3141 3142 3142 3142 3142 3142 3142 3142 3143 3143 3144 3144 3144 3143 3143 3143 3143 3143 3143 3143 3143 3143 3143 3143 3143 3143 3143 3143 3144 3144 3144 3144 3144 3144 3144 3144 3144 3144 3144 3143 3143 3143 3143 3143 3143 3142 3142 3142 3141 3141 3141 3141 3140 3140 3140 3140 3140 3139 3139 3139 3139 3139 3138 3138 3137 3137 3136 3136 3136 3135 3135 3134 3134 3133 3132
3126 3126 3127 3128 3128 3129 3129 3130 3131 3131 3132 3132 3133 3133 3133 3133 3134 3134 3135 3136 3136 3137 3137 3138 3139 3140 3140 3141 3141 3141 3141 3141 3141 3141 3141 3142 3142 3143 3143 3143 3143 3143 3143 3143 3142 3142 3142 3142 3142 3142 3142 3143 3143 3143 3143 3143 3143 3144 3144 3144 3144 3144 3144 3144 3143 3143 3143 3143 3143 3143 3143 3143 3142 3142 3142 3141 3141 3141 3141 3141 3140 3140 3140 3139 3139 3139 3139 3139 3139 3138 3138 3137 3137 3136 3136 3136 3135 3135 3134 3134 3133 3132 3132
3125 3126 3126 3127 3127 3128 3128 3129 3130 3131 3131 3132 3132 3132 3132 3133 3133 3134 3134 3135 3136 3136 3137 3138 3139 3139 3139 3140 3140 3141 3141 3141 3141 3141 3141 3141 3142 3142 3143 3143 3142 3142 3142 3142 3142 3142 3142 3142 3142 3142 3142 3142 3142 3142 3143 3143 3143 3143 3143 3143 3144 3144 3144 3143 3143 3143 3143 3143 3143 3143 3143 3142 3142 3142 3141 3141 3141 3141 3141 3140 3140 3140 3139 3139 3139 3139 3139 3139 3138 3137 3137 3137 3136 3136 3136 3135 3135 3134 3134 3133 3132 3132 3131
3124 3125 3126 3126 3127 3127 3127 3128 3129 3130 3131 3131 3131 3132 3132 3132 3133 3133 3134 3135 3135 3136 3137 3138 3138 3138 3139 3139 3140 3140 3140 3140 3140 3140 3140 3141 3141 3142 3142 3142 3142 3142 3142 3142 3142 3142 3142 3142 3142 3142 3142 3142 3142 3142 3142 3143 3143 3143 3143 3143 3143 3143 3143 3143 3143 3143 3142 3142 3142 3142 3142 3142 3141 3141 3141 3141 3141 3140 3140 3140 3139 3139 3139 3139 3139 3139 3138 3138 3138 3137 3137 3136 3136 3136 3135 3135 3134 3133 3133 3132 3132 3131 3131
3124 3124 3125 3126 3126 3126 3127 3127 3128 3129 3130 3131 3131 3131 3131 3132 3132 3133 3134 3134 3135 3136 3136 3137 3138 3138 3138 3139 3139 3139 3139 3139 3139 3139 3140 3141 3141 3141 3141 3141 3141 3141 3141 3141 3141 3141 3141 3141 3141 3141 3141 3142 3142 3142 3142 3142 3142 3142 3142 3143 3143 3143 3143 3143 3142 3142 3142 3142 3142 3142 3141 3141 3141 3141 3141 3141 3140 3140 3140 3140 3140 3139 3139 3139 3139 3138 3138 3138 3137 3137 3136 3136 3136 3135 3135 3134 3133 3133 3132 3132 3131 3131 3130
3123 3123 3124 3125 3126 3126 3126 3126 3127 3128 3129 3130 3131 3131 3131 3131 3132 3133 3133 3134 3135 3135 3136 3137 3137 3138 3138 3138 3138 3139 3139 3139 3139 3139 3139 3140 3141 3141 3141 3141 3141 3141 3141 3141 3141 3141 3141 3141 3141 3141 3141 3141 3142 3142 3142 3142 3142 3142 3142 3142 3142 3142 3142 3142 3142 3142 3142 3141 3141 3141 3141 3141 3141 3141 3140 3140 3140 3140 3140 3140 3140 3139 3139 3138 3138 3138 3137 3137 3137 3136 3136 3135 3135 3135 3134 3133 3133 3132 3131 3131 3131 3130 3129
3122 3122 3123 3124 3125 3125 3125 3126 3126 3127 3128 3129 3130 3131 3131 3131 3132 3132 3133 3133 3134 3135 3136 3136 3137 3137 3137 3137 3138 3138 3138 3138 3138 3139 3139 3140 3140 3140 3141 3141 3141 3141 3141 3141 3141 3141 3141 3141 3141 3141 3141 3141 3141 3141 3141 3141 3141 3142 3141 3141 3141 3141 3141 3141 3141 3141 3141 3141 3141 3141 3141 3141 3141 3140 3140 3140 3140 3140 3139 3139 3139 3138 3138 3138 3138 3137 3137 3136 3136 3136 3135 3135 3134 3133 3133 3133 3132 3131 3131 3130 3130 3129 3129
3121 3122 3123 3123 3124 3124 3125 3125 3125 3126 3127 3129 3130 3130 3131 3131 3131 3132 3132 3133 3134 3135 3136 3136 3136 3136 3136 3137 3137 3137 3138 3138 3138 3138 3139 3139 3140 3140 3140 3140 3140 3140 3140 3141 3141 3141 3141 3141 3141 3141 3141 3141 3141 3141 3141 3141 3141 3141 3141 3141 3141 3141 3141 3141 3141 3141 3141 3141 3141 3140 3140 3140 3140 3140 3140 3140 3139 3139 3138 3138 3138 3138 3138 3137 3137 3137 3136 3136 3136 3135 3135 3134 3133 3132 3133 3132 3131 3131 3130 3130 3129 3128 3128
3120 3121 3122 3123 3123 3124 3124 3124 3124 3126 3127 3128 3129 3130 3131 3131 3131 3131 3132 3133 3133 3134 3135 3136 3136 3136 3136 3136 3137 3137 3137 3137 3137 3138 3138 3139 3139 3139 3140 3140 3140 3140 3140 3140 3140 3140 3141 3141 3141 3141 3141 3141 3141 3141 3141 3141 3141 3141 3141 3141 3141 3141 3141 3141 3141 3140 3140 3140 3140 3140 3140 3140 3140 3140 3139 3139 3138 3138 3138 3138 3138 3137 3137 3137 3136 3136 3136 3135 3135 3134 3134 3133 3133 3132 3132 3131 3131 3130 3130 3129 3128 3128 3127
3120 3120 3121 3122 3123 3123 3123 3123 3123 3125 3126 3128 3129 3130 3130 3131 3131 3131 3131 3132 3133 3134 3135 3135 3135 3135 3136 3136 3136 3136 3136 3137 3137 3137 3138 3138 3139 3139 3139 3139 3139 3139 3139 3139 3140 3140 3140 3141 3140 3140 3141 3141 3141 3141 3141 3141 3140 3140 3140 3140 3140 3140 3141 3140 3140 3140 3140 3140 3140 3140 3140 3140 3140 3139 3138 3138 3138 3138 3138 3138 3137 3137 3137 3136 3136 3136 3135 3135 3134 3134 3133 3133 3132 3132 3131 3131 3130 3130 3129 3128 3127 3127 3126
3119 3119 3120 3121 3122 3122 3123 3123 3123 3124 3126 3127 3129 3129 3130 3130 3130 3131 3131 3132 3133 3134 3135 3134 3134 3135 3135 3136 3136 3136 3136 3136 3136 3137 3137 3138 3138 3138 3138 3138 3138 3138 3139 3139 3139 3140 3140 3140 3140 3140 3140 3141 3141 3140 3140 3140 3140 3140 3140 3140 3140 3140 3140 3140 3140 3140 3140 3141 3140 3140 3139 3139 3139 3138 3138 3137 3137 3137 3137 3137 3137 3136 3136 3136 3135 3135 3134 3134 3134 3133 3133 3132 3131 3131 3130 3130 3129 3129 3128 3127 3126 3126 3125
3117 3118 3119 3120 3121 3122 3122 3122 3122 3123 3125 3127 3128 3129 3129 3130 3130 3130 3131 3132 3133 3134 3134 3134 3134 3134 3135 3135 3135 3136 3136 3136 3136 3136 3137 3137 3138 3138 3138 3138 3138 3138 3138 3138 3139 3139 3139 3139 3140 3140 3140 3140 3140 3140 3139 3140 3140 3140 3139 3140 3140 3140 3140 3140 3140 3140 3140 3141 3140 3140 3139 3138 3138 3137 3137 3136 3136 3136 3136 3136 3136 3136 3136 3135 3135 3134 3134 3133 3133 3132 3132 3131 3131 3130 3130 3129 3128 3128 3127 3126 3126 3125 3124
3116 3117 3118 3119 3120 3121 3122 3122 3122 3123 3125 3126 3127 3128 3128 3129 3129 3130 3131 3131 3132 3133 3133 3133 3133 3134 3134 3134 3135 3135 3135 3135 3136 3136 3136 3137 3137 3137 3137 3137 3137 3137 3137 3138 3138 3138 3139 3139 3139 3139 3140 3140 3140 3139 3139 3139 3139 3139 3139 3139 3139 3139 3140 3139 3139 3140 3140 3140 3139 3139 3139 3138 3138 3137 3136 3136 3136 3136 3136 3136 3136 3136 3135 3135 3134 3133 3133 3133 3132 3132 3131 3131 3130 3130 3129 3128 3128 3127 3126 3126 3125 3124 3123
3115 3116 3117 3119 3119 3120 3121 3122 3122 3123 3124 3126 3126 3127 3128 3129 3129 3130 3131 3131 3132 3132 3132 3133 3133 3133 3134 3134 3134 3134 3135 3135 3135 3136 3136 3136 3136 3136 3136 3136 3136 3137 3137 3137 3138 3138 3138 3139 3139 3139 3139 3139 3139 3139 3139 3139 3139 3139 3139 3139 3139 3139 3139 3139 3139 3139 3139 3139 3139 3139 3139 3138 3137 3137 3136 3136 3136 3136 3136 3136 3136 3135 3135 3134 3133 3133 3132 3132 3131 3131 3131 3130 3129 3129 3128 3127 3127 3126 3125 3125 3124 3123 3122
3115 3116 3117 3118 3119 3120 3121 3121 3122 3123 3124 3125 3126 3127 3128 3128 3129 3129 3130 3131 3131 3131 3132 3132 3132 3133 3133 3133 3134 3134 3134 3134 3135 3135 3136 3136 3136 3136 3136 3136 3136 3136 3136 3137 3137 3137 3138 3138 3138 3139 3139 3139 3139 3139 3139 3138 3138 3139 3139 3139 3139 3139 3139 3139 3139 3139 3139 3139 3139 3139 3138 3138 3137 3136 3136 3135 3135 3136 3136 3136 3135 3134 3134 3133 3133 3132 3132 3131 3131 3130 3130 3129 3129 3128 3127 3127 3126 3125 3124 3124 3123 3122 3121
3114 3115 3116 3117 3118 3120 3120 3121 3121 3122 3124 3125 3126 3126 3127 3127 3128 3129 3129 3130 3131 3131 3131 3131 3132 3132 3132 3133 3133 3133 3133 3134 3134 3135 3135 3135 3135 3135 3136 3136 3136 3136 3136 3136 3136 3137 3137 3137 3138 3138 3138 3138 3138 3138 3138 3138 3138 3138 3138 3139 3139 3139 3138 3138 3138 3138 3138 3138 3138 3138 3138 3137 3136 3136 3135 3136 3136 3135 3135 3135 3134 3134 3133 3133 3132 3132 3131 3131 3130 3130 3129 3128 3128 3127 3126 3126 3125 3124 3123 3123 3122 3121 3120
3114 3115 3116 3117 3118 3119 3120 3121 3121 3122 3123 3124 3125 3126 3126 3127 3127 3128 3129 3129 3130 3130 3131 3131 3131 3131 3132 3132 3132 3133 3133 3133 3134 3134 3134 3134 3135 3135 3135 3135 3135 3136 3136 3136 3136 3136 3136 3137 3137 3137 3138 3138 3138 3138 3138 3138 3137 3137 3137 3137 3137 3137 3138 3138 3138 3137 3137 3137 3137 3137 3137 3136 3136 3136 3135 3135 3135 3135 3134 3134 3134 3133 3133 3132 3132 3131 3131 3130 3130 3129 3128 3127 3127 3126 3126 3125 3124 3123 3123 3122 3121 3120 3119
3113 3115 3116 3116 3118 3119 3120 3120 3121 3122 3123 3124 3124 3125 3126 3126 3127 3127 3128 3129 3129 3130 3130 3130 3131 3131 3131 3131 3132 3132 3132 3133 3133 3133 3134 3134 3134 3134 3134 3135 3135 3135 3135 3136 3136 3136 3136 3136 3136 3137 3137 3137 3137 3137 3137 3137 3137 3137 3136 3136 3136 3137 3137 3137 3137 3137 3137 3137 3137 3137 3136 3136 3136 3136 3135 3134 3134 3134 3134 3133 3133 3133 3132 3132 3131 3131 3130 3129 3129 3128 3127 3127 3126 3126 3125 3124 3123 3122 3122 3121 3120 3119 3118
3113 3114 3115 3116 3117 3118 3119 3120 3121 3121 3122 3123 3123 3124 3125 3126 3126 3127 3127 3128 3129 3129 3130 3130 3130 3130 3131 3131 3131 3131 3132 3132 3132 3133 3133 3133 3133 3133 3134 3134 3134 3135 3135 3135 3135 3136 3136 3136 3136 3136 3136 3137 3137 3137 3137 3137 3137 3136 3136 3136 3136 3136 3136 3136 3136 3136 3136 3136 3136 3136 3135 3136 3135 3135 3134 3134 3134 3133 3133 3133 3133 3132 3132 3131 3131 3130 3129 3129 3128 3127 3126 3126 3125 3125 3124 3123 3122 3122 3121 3120 3119 3118 3117
3113 3114 3114 3115 3116 3118 3119 3120 3120 3121 3121 3122 3123 3124 3124 3125 3126 3126 3127 3127 3128 3128 3129 3129 3129 3130 3130 3130 3131 3131 3131 3131 3132 3132 3132 3132 3133 3133 3133 3133 3134 3134 3134 3135 3135 3135 3135 3135 3136 3136 3136 3136 3136 3136 3136 3136 3136 3136 3136 3136 3136 3136 3136 3136 3136 3136 3136 3136 3136 3136 3136 3135 3134 3134 3133 3133 3133 3133 3133 3132 3132 3131 3131 3131 3130 3129 3129 3128 3127 3126 3126 3125 3124 3124 3123 3122 3121 3121 3120 3119 3118 3117 3116
3112 3113 3114 3115 3116 3117 3118 3119 3120 3120 3121 3121 3122 3123 3124 3124 3125 3126 3126 3127 3127 3128 3128 3128 3129 3129 3129 3130 3130 3130 3131 3131 3131 3131 3132 3132 3132 3132 3132 3133 3133 3133 3134 3134 3134 3134 3135 3135 3135 3135 3136 3136 3136 3136 3136 3136 3136 3136 3136 3136 3136 3136 3135 3135 3135 3136 3136 3136 3135 3135 3135 3134 3134 3134 3133 3133 3132 3132 3132 3131 3131 3131 3130 3130 3129 3129 3128 3127 3126 3126 3125 3124 3124 3123 3122 3121 3121 3120 3119 3118 3117 3116 3115
3111 3112 3113 3114 3115 3116 3117 3118 3119 3119 3120 3121 3122 3123 3123 3124 3124 3125 3125 3126 3126 3127 3127 3128 3128 3128 3129 3129 3129 3130 3130 3130 3131 3131 3131 3131 3131 3132 3132 3132 3132 3133 3133 3133 3133 3134 3134 3134 3134 3135 3135 3135 3135 3136 3136 3136 3136 3136 3136 3136 3136 3136 3135 3135 3135 3135 3135 3135 3135 3134 3134 3134 3133 3133 3133 3132 3132 3132 3131 3131 3131 3130 3130 3129 3128 3128 3127 3126 3126 3125 3124 3123 3123 3122 3121 3121 3120 3119 3118 3117 3116 3115 3114
3111 3111 3112 3113 3114 3115 3116 3117 3118 3119 3120 3121 3121 3122 3122 3123 3124 3124 3124 3125 3126 3126 3126 3127 3127 3127 3128 3128 3128 3129 3129 3129 3130 3130 3131 3131 3131 3131 3131 3131 3132 3132 3132 3133 3133 3133 3133 3134 3134 3134 3134 3134 3135 3135 3135 3135 3135 3135 3136 3136 3136 3135 3135 3135 3135 3135 3135 3135 3134 3134 3133 3133 3133 3132 3132 3132 3131 3131 3131 3130 3130 3129 3129 3128 3128 3127 3126 3126 3125 3124 3123 3122 3122 3121 3120 3120 3119 3118 3117 3116 3115 3114 3113
3110 3111 3111 3112 3114 3115 3116 3116 3117 3118 3119 3120 3121 3121 3122 3122 3123 3123 3123 3124 3125 3125 3126 3126 3126 3127 3127 3127 3128 3128 3128 3129 3129 3130 3130 3130 3130 3131 3131 3131 3131 3131 3132 3132 3132 3133 3133 3133 3133 3133 3134 3134 3134 3134 3135 3135 3135 3135 3135 3135 3135 3135 3135 3135 3134 3134 3134 3134 3134 3133 3133 3132 3132 3132 3132 3131 3131 3131 3130 3130 3129 3129 3128 3127 3127 3126 3125 3125 3124 3123 3122 3121 3121 3120 3119 3118 3118 3117 3116 3115 3114 3113 3112
3109 3110 3111 3112 3113 3114 3115 3116 3117 3118 3118 3119 3120 3121 3121 3121 3122 3122 3123 3123 3124 3124 3125 3125 3126 3126 3126 3127 3127 3127 3128 3128 3129 3129 3129 3130 3130 3130 3130 3131 3131 3131 3131 3131 3132 3132 3132 3133 3133 3133 3133 3133 3133 3134 3134 3134 3134 3134 3134 3135 3135 3135 3134 3134 3134 3134 3134 3133 3133 3133 3132 3132 3132 3131 3131 3131 3130 3130 3129 3129 3128 3128 3127 3126 3126 3125 3124 3124 3123 3122 3121 3121 3120 3119 3118 3117 3116 3116 3115 3114 3112 3111 3111
3108 3109 3110 3111 3112 3113 3114 3115 3116 3117 3118 3118 3119 3120 3120 3121 3121 3121 3122 3122 3123 3124 3124 3125 3125 3126 3126 3126 3126 3127 3127 3128 3128 3128 3129 3129 3129 3129 3130 3130 3130 3131 3131 3131 3131 3132 3132 3132 3132 3132 3132 3133 3133 3133 3133 3133 3134 3134 3134 3134 3134 3134 3134 3134 3134 3133 3133 3133 3132 3132 3132 3131 3131 3131 3130 3130 3130 3129 3129 3128 3127 3127 3126 3126 3125 3124 3123 3123 3122 3121 3120 3120 3119 3118 3117 3116 3115 3114 3113 3112 3111 3110 3109
3107 3108 3110 3111 3112 3112 3113 3114 3115 3116 3117 3117 3118 3119 3120 3120 3121 3121 3121 3122 3123 3123 3124 3124 3125 3125 3125 3126 3126 3126 3127 3127 3128 3128 3128 3128 3129 3129 3129 3129 3130 3130 3130 3131 3131 3131 3131 3131 3131 3132 3132 3132 3132 3132 3133 3133 3133 3133 3133 3134 3134 3134 3133 3133 3133 3133 3132 3132 3132 3131 3131 3131 3130 3130 3130 3129 3129 3128 3128 3127 3126 3126 3125 3125 3124 3123 3122 3122 3121 3120 3119 3118 3117 3116 3116 3115 3114 3113 3112 3111 3110 3109 3108
3106 3107 3109 3110 3111 3112 3113 3113 3114 3115 3116 3117 3117 3118 3119 3119 3120 3120 3121 3121 3122 3123 3123 3124 3124 3125 3125 3125 3126 3126 3126 3127 3127 3127 3128 3128 3128 3128 3129 3129 3129 3129 3130 3130 3131 3131 3131 3131 3131 3131 3131 3131 3131 3132 3132 3132 3132 3133 3133 3133 3133 3133 3133 3133 3132 3132 3132 3131 3131 3131 3131 3130 3130 3129 3129 3129 3128 3128 3127 3126 3126 3125 3124 3124 3123 3122 3121 3121 3120 3119 3118 3117 3116 3116 3115 3114 3113 3112 3111 3110 3109 3108 3107
3106 3107 3108 3109 3110 3111 3111 3112 3113 3114 3115 3116 3116 3117 3118 3119 3119 3120 3121 3121 3122 3122 3123 3123 3124 3124 3124 3125 3125 3125 3126 3126 3126 3127 3127 3127 3128 3128 3128 3128 3129 3129 3129 3130 3130 3130 3130 3130 3131 3131 3131 3131 3131 3131 3131 3131 3132 3132 3132 3132 3132 3132 3132 3132 3132 3131 3131 3131 3131 3130 3130 3130 3129 3129 3128 3128 3128 3127 3126 3126 3125 3124 3124 3123 3122 3121 3121 3120 3119 3118 3117 3117 3116 3115 3114 3112 3111 3111 3110 3109 3108 3107 3106
3105 3106 3107 3108 3109 3110 3111 3111 3112 3113 3114 3115 3116 3117 3117 3118 3119 3119 3120 3121 3121 3121 3122 3123 3123 3124 3124 3124 3124 3125 3125 3126 3126 3126 3126 3127 3127 3127 3127 3128 3128 3128 3129 3129 3129 3130 3130 3130 3130 3130 3130 3130 3131 3131 3131 3131 3131 3131 3132 3132 3132 3132 3131 3131 3131 3131 3131 3130 3130 3130 3129 3129 3129 3128 3128 3127 3127 3126 3126 3125 3124 3124 3123 3122 3121 3121 3120 3119 3118 3117 3116 3116 3115 3114 3113 3112 3111 3110 3109 3108 3106 3106 3104
3104 3105 3106 3107 3108 3108 3109 3111 3111 3112 3113 3114 3115 3116 3117 3118 3118 3119 3119 3120 3120 3121 3121 3122 3123 3123 3123 3124 3124 3124 3124 3125 3125 3126 3126 3126 3126 3126 3127 3127 3128 3128 3128 3129 3129 3129 3129 3129 3129 3130 3130 3130 3130 3130 3130 3130 3131 3131 3131 3131 3131 3131 3131 3131 3130 3130 3130 3130 3129 3129 3129 3128 3128 3128 3127 3127 3126 3126 3125 3124 3124 3123 3122 3121 3121 3120 3119 3118 3117 3117 3116 3115 3114 3113 3112 3111 3110 3109 3107 3106 3106 3104 3103
3102 3104 3105 3106 3107 3107 3108 3110 3111 3112 3113 3114 3115 3116 3116 3117 3118 3118 3119 3119 3120 3120 3121 3121 3122 3122 3123 3123 3123 3123 3124 3124 3125 3125 3125 3125 3126 3126 3126 3127 3127 3128 3128 3128 3128 3128 3129 3129 3129 3129 3129 3129 3130 3130 3130 3130 3130 3130 3130 3131 3131 3130 3130 3130 3130 3130 3129 3129 3129 3129 3128 3128 3127 3127 3126 3126 3125 3125 3124 3124 3123 3122 3121 3121 3120 3119 3118 3118 3117 3116 3115 3114 3113 3112 3111 3110 3109 3107 3106 3105 3104 3103 3102
3101 3102 3104 3105 3106 3106 3108 3109 3110 3111 3112 3113 3114 3115 3116 3116 3117 3117 3118 3118 3119 3120 3120 3121 3121 3122 3122 3122 3122 3123 3123 3123 3124 3124 3125 3125 3125 3126 3126 3126 3127 3127 3127 3128 3128 3128 3128 3128 3129 3129 3129 3129 3129 3129 3129 3129 3130 3130 3130 3130 3130 3130 3130 3130 3129 3129 3129 3129 3128 3128 3128 3127 3127 3126 3126 3125 3125 3124 3124 3123 3122 3121 3121 3120 3119 3118 3118 3117 3116 3115 3114 3113 3112 3111 3110 3109 3108 3106 3105 3104 3103 3101 3100
3100 3101 3102 3104 3105 3106 3107 3108 3109 3111 3111 3113 3113 3114 3115 3116 3116 3117 3117 3118 3118 3119 3120 3120 3121 3121 3121 3121 3122 3122 3122 3123 3123 3124 3124 3124 3125 3125 3126 3126 3127 3127 3127 3127 3127 3127 3128 3128 3128 3128 3129 3129 3129 3129 3129 3129 3129 3129 3129 3129 3129 3129 3129 3129 3129 3129 3129 3128 3128 3127 3127 3127 3126 3126 3125 3125 3124 3124 3123 3122 3122 3121 3120 3119 3119 3118 3117 3116 3115 3114 3113 3112 3111 3110 3109 3108 3107 3106 3104 3103 3102 3101 3099
3099 3100 3101 3103 3104 3105 3106 3107 3108 3110 3111 3112 3113 3113 3114 3115 3115 3116 3116 3117 3117 3118 3119 3119 3120 3120 3120 3121 3121 3121 3122 3122 3123 3123 3123 3124 3124 3125 3126 3126 3127 3127 3127 3127 3127 3127 3127 3128 3128 3128 3128 3128 3129 3129 3129 3129 3129 3129 3129 3129 3129 3129 3129 3129 3129 3128 3128 3128 3127 3127 3127 3126 3126 3125 3125 3124 3124 3123 3122 3122 3121 3120 3120 3119 3118 3117 3116 3115 3114 3113 3112 3111 3110 3109 3108 3107 3106 3104 3103 3102 3101 3099 3098
3098 3099 3101 3102 3103 3104 3105 3106 3108 3109 3110 3111 3111 3112 3113 3114 3115 3115 3116 3116 3117 3118 3118 3119 3119 3120 3120 3120 3120 3121 3121 3122 3122 3123 3123 3123 3124 3125 3125 3126 3126 3126 3127 3127 3127 3127 3127 3127 3128 3128 3128 3128 3128 3128 3129 3129 3129 3129 3128 3128 3128 3128 3128 3128 3128 3128 3128 3127 3127 3126 3126 3126 3125 3125 3124 3124 3123 3123 3122 3121 3121 3120 3119 3118 3117 3116 3115 3114 3113 3112 3111 3111 3109 3108 3107 3106 3105 3103 3102 3101 3100 3098 3096
3097 3098 3100 3101 3102 3103 3105 3106 3107 3108 3109 3110 3111 3111 3112 3113 3114 3114 3115 3116 3116 3117 3118 3118 3119 3119 3119 3119 3120 3120 3121 3121 3122 3122 3122 3123 3123 3124 3125 3126 3126 3126 3126 3126 3126 3126 3127 3127 3127 3127 3128 3128 3128 3128 3128 3128 3128 3128 3128 3128 3128 3128 3128 3128 3128 3127 3127 3127 3126 3126 3126 3125 3125 3124 3124 3123 3123 3122 3121 3121 3120 3119 3118 3117 3116 3116 3115 3114 3113 3111 3111 3110 3108 3107 3106 3105 3104 3102 3101 3100 3098 3097 3095
3096 3097 3099 3101 3101 3103 3104 3105 3106 3107 3108 3109 3110 3111 3111 3112 3113 3114 3115 3115 3116 3116 3117 3117 3118 3118 3119 3119 3119 3120 3120 3121 3121 3121 3122 3122 3123 3124 3125 3125 3126 3126 3126 3126 3126 3126 3126 3127 3127 3127 3127 3127 3127 3128 3128 3128 3128 3128 3128 3128 3127 3127 3127 3127 3127 3127 3127 3126 3126 3126 3125 3125 3124 3124 3123 3123 3122 3121 3121 3120 3119 3118 3117 3116 3116 3115 3114 3113 3112 3111 3110 3109 3107 3106 3105 3104 3102 3101 3100 3099 3097 3096 3094
3095 3097 3098 3100 3101 3102 3103 3104 3105 3106 3107 3108 3109 3110 3111 3112 3113 3113 3114 3115 3116 3116 3117 3117 3117 3118 3118 3119 3119 3119 3120 3120 3121 3121 3121 3122 3123 3124 3124 3125 3126 3126 3126 3126 3126 3126 3126 3126 3126 3126 3127 3127 3127 3127 3127 3128 3128 3128 3127 3127 3127 3127 3126 3126 3126 3126 3126 3126 3126 3125 3125 3124 3124 3123 3123 3122 3121 3121 3120 3119 3118 3117 3116 3116 3115 3114 3113 3112 3111 3110 3109 3108 3106 3105 3104 3103 3101 3100 3099 3097 3096 3094 3093
3094 3096 3097 3099 3100 3101 3102 3103 3104 3105 3106 3107 3108 3109 3111 3111 3112 3113 3113 3114 3115 3116 3116 3117 3117 3117 3118 3118 3119 3119 3120 3120 3121 3121 3121 3122 3123 3123 3124 3125 3125 3126 3126 3126 3126 3126 3126 3126 3126 3126 3126 3126 3126 3127 3127 3127 3127 3127 3127 3126 3126 3126 3126 3126 3126 3126 3126 3125 3125 3125 3124 3124 3123 3123 3122 3121 3121 3120 3119 3118 3117 3116 3116 3115 3114 3113 3112 3111 3110 3109 3108 3107 3106 3104 3103 3102 3101 3099 3098 3096 3095 3093 3091
3094 3095 3096 3098 3099 3101 3101 3102 3103 3104 3105 3106 3107 3109 3110 3111 3111 3112 3112 3113 3114 3115 3116 3116 3116 3117 3117 3118 3119 3119 3120 3120 3121 3121 3121 3122 3122 3123 3124 3125 3125 3125 3126 3126 3126 3126 3126 3126 3126 3126 3126 3126 3126 3127 3127 3127 3127 3127 3126 3126 3126 3126 3126 3126 3125 3125 3125 3125 3125 3124 3124 3123 3123 3122 3121 3121 3120 3119 3118 3117 3116 3116 3115 3114 3113 3112 3111 3111 3109 3108 3107 3106 3105 3103 3102 3101 3099 3098 3096 3095 3093 3091 3090
3093 3095 3096 3097 3099 3100 3101 3102 3102 3103 3105 3106 3107 3108 3109 3109 3110 3111 3112 3113 3113 3114 3115 3115 3116 3116 3117 3118 3118 3119 3120 3120 3121 3121 3121 3122 3122 3123 3124 3124 3125 3125 3125 3125 3126 3126 3126 3126 3126 3126 3126 3126 3126 3126 3127 3127 3127 3126 3126 3126 3126 3125 3125 3125 3125 3125 3124 3124 3124 3124 3123 3123 3122 3121 3121 3120 3119 3118 3117 3117 3116 3115 3114 3113 3113 3111 3111 3110 3108 3107 3106 3105 3104 3102 3101 3100 3098 3097 3095 3094 3092 3090 3088
3092 3094 3096 3097 3098 3099 3100 3101 3102 3103 3104 3105 3106 3107 3108 3109 3109 3110 3111 3112 3113 3114 3115 3115 3116 3116 3117 3117 3118 3119 3120 3120 3121 3121 3121 3122 3122 3123 3123 3123 3124 3124 3125 3125 3125 3125 3125 3125 3125 3125 3126 3126 3126 3126 3126 3126 3126 3126 3126 3126 3125 3125 3125 3124 3124 3124 3124 3124 3123 3123 3123 3122 3121 3121 3120 3119 3118 3117 3117 3116 3115 3115 3114 3113 3112 3111 3110 3109 3108 3106 3105 3104 3103 3101 3100 3099 3097 3096 3094 3092 3091 3089 3087
3092 3093 3095 3096 3097 3098 3099 3100 3101 3102 3103 3104 3105 3106 3107 3108 3109 3110 3111 3112 3113 3113 3114 3115 3116 3116 3117 3117 3118 3119 3119 3120 3121 3121 3121 3122 3122 3122 3123 3123 3123 3124 3124 3124 3124 3124 3125 3125 3125 3125 3125 3126 3126 3126 3126 3126 3126 3126 3126 3125 3125 3124 3124 3124 3124 3123 3123 3123 3123 3122 3122 3121 3121 3120 3119 3118 3118 3117 3116 3116 3115 3114 3113 3112 3111 3110 3109 3108 3107 3106 3104 3103 3102 3100 3099 3097 3096 3094 3093 3091 3089 3088 3086
3091 3093 3094 3096 3096 3097 3099 3100 3101 3102 3103 3104 3105 3106 3107 3108 3109 3110 3111 3111 3112 3113 3114 3115 3115 3116 3117 3118 3118 3119 3120 3120 3121 3121 3121 3121 3121 3122 3122 3122 3123 3123 3123 3123 3124 3124 3124 3124 3125 3125 3125 3125 3125 3125 3125 3125 3125 3125 3125 3125 3124 3124 3124 3123 3123 3123 3123 3122 3122 3122 3121 3121 3120 3119 3118 3118 3117 3116 3116 3115 3114 3113 3112 3111 3110 3109 3108 3107 3106 3105 3103 3102 3101 3099 3098 3096 3095 3093 3091 3090 3088 3086 3084
3090 3092 3093 3095 3096 3097 3098 3099 3100 3101 3102 3103 3105 3106 3106 3107 3108 3110 3111 3111 3112 3113 3114 3114 3115 3116 3117 3118 3118 3119 3120 3120 3121 3121 3121 3121 3121 3121 3121 3122 3122 3122 3122 3123 3123 3123 3123 3124 3124 3124 3124 3125 3125 3125 3125 3125 3125 3125 3125 3124 3124 3124 3123 3123 3123 3122 3122 3122 3122 3121 3121 3120 3119 3119 3118 3117 3116 3116 3115 3114 3114 3113 3112 3111 3109 3108 3107 3106 3105 3103 3102 3101 3099 3098 3096 3095 3093 3092 3090 3088 3087 3085 3083
3090 3091 3092 3094 3095 3096 3097 3098 3100 3101 3102 3103 3104 3105 3106 3107 3108 3109 3110 3111 3112 3112 3113 3114 3115 3115 3116 3117 3118 3119 3119 3120 3120 3121 3121 3121 3121 3121 3121 3121 3121 3122 3122 3122 3122 3123 3123 3123 3123 3124 3124 3124 3124 3124 3124 3124 3124 3124 3124 3124 3124 3123 3123 3122 3122 3122 3122 3121 3121 3120 3120 3119 3119 3118 3117 3116 3116 3115 3115 3114 3113 3112 3111 3110 3108 3107 3106 3105 3104 3102 3101 3100 3098 3097 3095 3094 3092 3091 3089 3087 3085 3083 3081
3089 3090 3092 3093 3094 3095 3096 3098 3099 3100 3101 3102 3103 3104 3106 3106 3108 3109 3110 3110 3111 3112 3113 3113 3114 3115 3115 3116 3117 3118 3118 3119 3119 3120 3120 3121 3121 3121 3121 3121 3121 3122 3122 3122 3122 3122 3122 3123 3123 3123 3123 3123 3123 3124 3124 3124 3124 3124 3124 3123 3123 3123 3122 3122 3122 3122 3121 3121 3120 3120 3119 3118 3118 3117 3117 3116 3115 3115 3114 3113 3112 3111 3110 3109 3108 3106 3105 3104 3103 3101 3100 3099 3097 3096 3094 3093 3091 3089 3087 3086 3084 3082 3080
3088 3090 3091 3092 3093 3095 3096 3097 3098 3100 3101 3102 3103 3104 3105 3106 3107 3108 3109 3110 3111 3111 3112 3113 3113 3114 3115 3116 3116 3117 3117 3118 3119 3119 3120 3120 3120 3120 3121 3121 3122 3122 3122 3122 3122 3122 3122 3122 3122 3123 3123 3123 3123 3123 3123 3123 3123 3123 3123 3123 3123 3122 3122 3122 3121 3121 3121 3120 3120 3119 3118 3118 3117 3117 3116 3116 3115 3114 3113 3112 3111 3110 3109 3108 3107 3106 3104 3103 3102 3100 3099 3097 3096 3095 3093 3091 3090 3088 3086 3084 3082 3080 3078
3087 3089 3090 3091 3092 3094 3095 3096 3098 3099 3100 3101 3102 3104 3105 3105 3106 3107 3108 3109 3110 3111 3111 3112 3113 3113 3114 3115 3116 3116 3117 3117 3118 3118 3119 3119 3119 3120 3121 3121 3121 3121 3122 3122 3122 3122 3122 3122 3122 3122 3122 3122 3123 3123 3123 3123 3123 3123 3122 3122 3122 3122 3122 3121 3121 3121 3120 3120 3119 3118 3118 3117 3117 3116 3116 3115 3114 3113 3112 3111 3110 3109 3108 3107 3106 3105 3103 3102 3101 3099 3098 3096 3095 3093 3092 3090 3088 3087 3085 3083 3081 3079 3077
3086 3088 3089 3091 3092 3093 3094 3096 3097 3098 3100 3101 3102 3103 3104 3105 3106 3106 3107 3108 3109 3110 3111 3111 3112 3113 3114 3115 3115 3116 3116 3116 3117 3117 3118 3118 3119 3119 3120 3120 3121 3121 3121 3121 3122 3122 3122 3122 3122 3122 3122 3122 3122 3122 3123 3123 3122 3122 3122 3122 3122 3121 3121 3121 3120 3120 3119 3119 3118 3118 3117 3117 3116 3116 3115 3114 3113 3112 3111 3110 3109 3108 3107 3106 3105 3104 3102 3101 3100 3098 3097 3095 3094 3092 3091 3089 3087 3085 3083 3081 3080 3077 3075
3085 3087 3088 3090 3091 3092 3093 3095 3096 3098 3099 3100 3101 3102 3103 3104 3105 3106 3107 3107 3108 3109 3110 3111 3111 3112 3113 3114 3115 3115 3116 3116 3116 3117 3117 3118 3118 3119 3119 3120 3120 3121 3121 3121 3121 3121 3121 3121 3121 3121 3122 3122 3122 3122 3122 3122 3122 3122 3121 3121 3121 3121 3121 3120 3120 3119 3119 3118 3118 3117 3117 3116 3116 3115 3114 3114 3113 3111 3111 3109 3108 3107 3106 3105 3104 3103 3101 3100 3099 3097 3096 3094 3092 3091 3089 3087 3086 3084 3082 3080 3078 3076 3074